Year,Month,Day,Hour,Minute,Value (Times are PST for temperature in C)
2008,06,28,00,00,16.30
2008,06,28,00,01,16.30
2008,06,28,00,02,16.30
2008,06,28,00,03,16.30
2008,06,28,00,04,16.20
2008,06,28,00,05,16.20
2008,06,28,00,06,16.20
2008,06,28,00,07,16.20
2008,06,28,00,08,16.20
2008,06,28,00,09,16.10
2008,06,28,00,10,16.10
2008,06,28,00,11,16.10
2008,06,28,00,12,16.10
2008,06,28,00,13,16.10
2008,06,28,00,14,16.10
2008,06,28,00,15,16.10
2008,06,28,00,16,16.10
2008,06,28,00,17,16.00
2008,06,28,00,18,16.00
2008,06,28,00,19,16.00
2008,06,28,00,20,16.00
2008,06,28,00,21,16.00
2008,06,28,00,22,15.90
2008,06,28,00,23,15.90
2008,06,28,00,24,15.90
2008,06,28,00,25,15.90
2008,06,28,00,26,15.90
2008,06,28,00,27,15.90
2008,06,28,00,28,15.90
2008,06,28,00,29,15.90
2008,06,28,00,30,15.80
2008,06,28,00,31,15.80
2008,06,28,00,32,15.80
2008,06,28,00,33,15.80
2008,06,28,00,34,15.80
2008,06,28,00,35,15.80
2008,06,28,00,36,15.80
2008,06,28,00,37,15.70
2008,06,28,00,38,15.70
2008,06,28,00,39,15.70
2008,06,28,00,40,15.70
2008,06,28,00,41,15.70
2008,06,28,00,42,15.60
2008,06,28,00,43,15.60
2008,06,28,00,44,15.60
2008,06,28,00,45,15.60
2008,06,28,00,46,15.60
2008,06,28,00,47,15.60
2008,06,28,00,48,15.60
2008,06,28,00,49,15.60
2008,06,28,00,50,15.60
2008,06,28,00,51,15.60
2008,06,28,00,52,15.60
2008,06,28,00,53,15.60
2008,06,28,00,54,15.60
2008,06,28,00,55,15.60
2008,06,28,00,56,15.60
2008,06,28,00,57,15.60
2008,06,28,00,58,15.50
2008,06,28,00,59,15.50
2008,06,28,01,00,15.50
2008,06,28,01,01,15.40
2008,06,28,01,02,15.40
2008,06,28,01,03,15.40
2008,06,28,01,04,15.40
2008,06,28,01,05,15.30
2008,06,28,01,06,15.30
2008,06,28,01,07,15.30
2008,06,28,01,08,15.30
2008,06,28,01,09,15.30
2008,06,28,01,10,15.30
2008,06,28,01,11,15.30
2008,06,28,01,12,15.30
2008,06,28,01,13,15.30
2008,06,28,01,14,15.20
2008,06,28,01,15,15.20
2008,06,28,01,16,15.20
2008,06,28,01,17,15.20
2008,06,28,01,18,15.10
2008,06,28,01,19,15.10
2008,06,28,01,20,15.10
2008,06,28,01,21,15.10
2008,06,28,01,22,15.00
2008,06,28,01,23,15.00
2008,06,28,01,24,15.00
2008,06,28,01,25,15.00
2008,06,28,01,26,15.00
2008,06,28,01,27,15.00
2008,06,28,01,28,15.00
2008,06,28,01,29,15.00
2008,06,28,01,30,15.00
2008,06,28,01,31,15.00
2008,06,28,01,32,15.00
2008,06,28,01,33,15.00
2008,06,28,01,34,15.00
2008,06,28,01,35,15.00
2008,06,28,01,36,15.00
2008,06,28,01,37,14.90
2008,06,28,01,38,14.90
2008,06,28,01,39,14.80
2008,06,28,01,40,14.80
2008,06,28,01,41,14.80
2008,06,28,01,42,14.80
2008,06,28,01,43,14.80
2008,06,28,01,44,14.70
2008,06,28,01,45,14.70
2008,06,28,01,46,14.70
2008,06,28,01,47,14.70
2008,06,28,01,48,14.70
2008,06,28,01,49,14.70
2008,06,28,01,50,14.60
2008,06,28,01,51,14.60
2008,06,28,01,52,14.60
2008,06,28,01,53,14.60
2008,06,28,01,54,14.60
2008,06,28,01,55,14.60
2008,06,28,01,56,14.60
2008,06,28,01,57,14.60
2008,06,28,01,58,14.60
2008,06,28,01,59,14.60
2008,06,28,02,00,14.60
2008,06,28,02,01,14.60
2008,06,28,02,02,14.50
2008,06,28,02,03,14.50
2008,06,28,02,04,14.50
2008,06,28,02,05,14.50
2008,06,28,02,06,14.50
2008,06,28,02,07,14.50
2008,06,28,02,08,14.50
2008,06,28,02,09,14.40
2008,06,28,02,10,14.40
2008,06,28,02,11,14.40
2008,06,28,02,12,14.30
2008,06,28,02,13,14.30
2008,06,28,02,14,14.30
2008,06,28,02,15,14.30
2008,06,28,02,16,14.20
2008,06,28,02,17,14.20
2008,06,28,02,18,14.20
2008,06,28,02,19,14.10
2008,06,28,02,20,14.10
2008,06,28,02,21,14.10
2008,06,28,02,22,14.10
2008,06,28,02,23,14.00
2008,06,28,02,24,14.00
2008,06,28,02,25,13.90
2008,06,28,02,26,13.90
2008,06,28,02,27,13.80
2008,06,28,02,28,13.80
2008,06,28,02,29,13.80
2008,06,28,02,30,13.70
2008,06,28,02,31,13.70
2008,06,28,02,32,13.60
2008,06,28,02,33,13.60
2008,06,28,02,34,13.60
2008,06,28,02,35,13.50
2008,06,28,02,36,13.50
2008,06,28,02,37,13.50
2008,06,28,02,38,13.50
2008,06,28,02,39,13.40
2008,06,28,02,40,13.40
2008,06,28,02,41,13.40
2008,06,28,02,42,13.40
2008,06,28,02,43,13.40
2008,06,28,02,44,13.30
2008,06,28,02,45,13.30
2008,06,28,02,46,13.30
2008,06,28,02,47,13.30
2008,06,28,02,48,13.30
2008,06,28,02,49,13.30
2008,06,28,02,50,13.30
2008,06,28,02,51,13.30
2008,06,28,02,52,13.30
2008,06,28,02,53,13.30
2008,06,28,02,54,13.30
2008,06,28,02,55,13.30
2008,06,28,02,56,13.30
2008,06,28,02,57,13.30
2008,06,28,02,58,13.30
2008,06,28,02,59,13.30
2008,06,28,03,00,13.30
2008,06,28,03,01,13.30
2008,06,28,03,02,13.30
2008,06,28,03,03,13.30
2008,06,28,03,04,13.30
2008,06,28,03,05,13.30
2008,06,28,03,06,13.30
2008,06,28,03,07,13.30
2008,06,28,03,08,13.30
2008,06,28,03,09,13.30
2008,06,28,03,10,13.30
2008,06,28,03,11,13.40
2008,06,28,03,12,13.40
2008,06,28,03,13,13.40
2008,06,28,03,14,13.40
2008,06,28,03,15,13.40
2008,06,28,03,16,13.40
2008,06,28,03,17,13.40
2008,06,28,03,18,13.40
2008,06,28,03,19,13.40
2008,06,28,03,20,13.40
2008,06,28,03,21,13.40
2008,06,28,03,22,13.40
2008,06,28,03,23,13.40
2008,06,28,03,24,13.40
2008,06,28,03,25,13.50
2008,06,28,03,26,13.40
2008,06,28,03,27,13.40
2008,06,28,03,28,13.40
2008,06,28,03,29,13.40
2008,06,28,03,30,13.50
2008,06,28,03,31,13.50
2008,06,28,03,32,13.60
2008,06,28,03,33,13.60
2008,06,28,03,34,13.60
2008,06,28,03,35,13.60
2008,06,28,03,36,13.60
2008,06,28,03,37,13.60
2008,06,28,03,38,13.60
2008,06,28,03,39,13.50
2008,06,28,03,40,13.60
2008,06,28,03,41,13.60
2008,06,28,03,42,13.60
2008,06,28,03,43,13.50
2008,06,28,03,44,13.50
2008,06,28,03,45,13.50
2008,06,28,03,46,13.50
2008,06,28,03,47,13.50
2008,06,28,03,48,13.50
2008,06,28,03,49,13.50
2008,06,28,03,50,13.50
2008,06,28,03,51,13.50
2008,06,28,03,52,13.50
2008,06,28,03,53,13.60
2008,06,28,03,54,13.60
2008,06,28,03,55,13.60
2008,06,28,03,56,13.60
2008,06,28,03,57,13.60
2008,06,28,03,58,13.60
2008,06,28,03,59,13.60
2008,06,28,04,00,13.60
2008,06,28,04,01,13.60
2008,06,28,04,02,13.60
2008,06,28,04,03,13.60
2008,06,28,04,04,13.60
2008,06,28,04,05,13.50
2008,06,28,04,06,13.50
2008,06,28,04,07,13.50
2008,06,28,04,08,13.50
2008,06,28,04,09,13.50
2008,06,28,04,10,13.50
2008,06,28,04,11,13.60
2008,06,28,04,12,13.60
2008,06,28,04,13,13.60
2008,06,28,04,14,13.60
2008,06,28,04,15,13.60
2008,06,28,04,16,13.60
2008,06,28,04,17,13.60
2008,06,28,04,18,13.60
2008,06,28,04,19,13.60
2008,06,28,04,20,13.60
2008,06,28,04,21,13.60
2008,06,28,04,22,13.60
2008,06,28,04,23,13.60
2008,06,28,04,24,13.60
2008,06,28,04,25,13.60
2008,06,28,04,26,13.60
2008,06,28,04,27,13.70
2008,06,28,04,28,13.70
2008,06,28,04,29,13.70
2008,06,28,04,30,13.70
2008,06,28,04,31,13.70
2008,06,28,04,32,13.70
2008,06,28,04,33,13.70
2008,06,28,04,34,13.70
2008,06,28,04,35,13.70
2008,06,28,04,36,13.70
2008,06,28,04,37,13.70
2008,06,28,04,38,13.60
2008,06,28,04,39,13.60
2008,06,28,04,40,13.60
2008,06,28,04,41,13.60
2008,06,28,04,42,13.60
2008,06,28,04,43,13.60
2008,06,28,04,44,13.60
2008,06,28,04,45,13.60
2008,06,28,04,46,13.60
2008,06,28,04,47,13.60
2008,06,28,04,48,13.60
2008,06,28,04,49,13.60
2008,06,28,04,50,13.60
2008,06,28,04,51,13.60
2008,06,28,04,52,13.60
2008,06,28,04,53,13.60
2008,06,28,04,54,13.50
2008,06,28,04,55,13.50
2008,06,28,04,56,13.50
2008,06,28,04,57,13.50
2008,06,28,04,58,13.50
2008,06,28,04,59,13.50
2008,06,28,05,00,13.50
2008,06,28,05,01,13.50
2008,06,28,05,02,13.50
2008,06,28,05,03,13.50
2008,06,28,05,04,13.50
2008,06,28,05,05,13.50
2008,06,28,05,06,13.50
2008,06,28,05,07,13.40
2008,06,28,05,08,13.40
2008,06,28,05,09,13.40
2008,06,28,05,10,13.40
2008,06,28,05,11,13.40
2008,06,28,05,12,13.40
2008,06,28,05,13,13.40
2008,06,28,05,14,13.40
2008,06,28,05,15,13.40
2008,06,28,05,16,13.30
2008,06,28,05,17,13.30
2008,06,28,05,18,13.30
2008,06,28,05,19,13.30
2008,06,28,05,20,13.20
2008,06,28,05,21,13.20
2008,06,28,05,22,13.20
2008,06,28,05,23,13.20
2008,06,28,05,24,13.20
2008,06,28,05,25,13.20
2008,06,28,05,26,13.20
2008,06,28,05,27,13.10
2008,06,28,05,28,13.10
2008,06,28,05,29,13.10
2008,06,28,05,30,13.00
2008,06,28,05,31,13.00
2008,06,28,05,32,12.90
2008,06,28,05,33,12.90
2008,06,28,05,34,12.90
2008,06,28,05,35,12.90
2008,06,28,05,36,12.90
2008,06,28,05,37,12.90
2008,06,28,05,38,12.90
2008,06,28,05,39,13.00
2008,06,28,05,40,13.00
2008,06,28,05,41,13.00
2008,06,28,05,42,13.00
2008,06,28,05,43,13.00
2008,06,28,05,44,13.00
2008,06,28,05,45,13.00
2008,06,28,05,46,13.00
2008,06,28,05,47,13.00
2008,06,28,05,48,13.00
2008,06,28,05,49,13.00
2008,06,28,05,50,13.00
2008,06,28,05,51,13.00
2008,06,28,05,52,13.10
2008,06,28,05,53,13.10
2008,06,28,05,54,13.20
2008,06,28,05,55,13.20
2008,06,28,05,56,13.20
2008,06,28,05,57,13.30
2008,06,28,05,58,13.30
2008,06,28,05,59,13.40
2008,06,28,06,00,13.40
2008,06,28,06,01,13.40
2008,06,28,06,02,13.50
2008,06,28,06,03,13.50
2008,06,28,06,04,13.60
2008,06,28,06,05,13.60
2008,06,28,06,06,13.60
2008,06,28,06,07,13.70
2008,06,28,06,08,13.70
2008,06,28,06,09,13.80
2008,06,28,06,10,13.80
2008,06,28,06,11,13.90
2008,06,28,06,12,14.10
2008,06,28,06,13,14.20
2008,06,28,06,14,14.40
2008,06,28,06,15,14.50
2008,06,28,06,16,14.70
2008,06,28,06,17,14.90
2008,06,28,06,18,15.00
2008,06,28,06,19,15.10
2008,06,28,06,20,15.30
2008,06,28,06,21,15.50
2008,06,28,06,22,15.70
2008,06,28,06,23,15.90
2008,06,28,06,24,16.00
2008,06,28,06,25,16.20
2008,06,28,06,26,16.30
2008,06,28,06,27,16.50
2008,06,28,06,28,16.60
2008,06,28,06,29,16.70
2008,06,28,06,30,16.80
2008,06,28,06,31,16.90
2008,06,28,06,32,17.00
2008,06,28,06,33,17.10
2008,06,28,06,34,17.30
2008,06,28,06,35,17.30
2008,06,28,06,36,17.40
2008,06,28,06,37,17.50
2008,06,28,06,38,17.60
2008,06,28,06,39,17.70
2008,06,28,06,40,17.80
2008,06,28,06,41,17.80
2008,06,28,06,42,17.90
2008,06,28,06,43,17.90
2008,06,28,06,44,18.00
2008,06,28,06,45,18.10
2008,06,28,06,46,18.10
2008,06,28,06,47,18.20
2008,06,28,06,48,18.20
2008,06,28,06,49,18.30
2008,06,28,06,50,18.30
2008,06,28,06,51,18.40
2008,06,28,06,52,18.40
2008,06,28,06,53,18.40
2008,06,28,06,54,18.40
2008,06,28,06,55,18.50
2008,06,28,06,56,18.50
2008,06,28,06,57,18.50
2008,06,28,06,58,18.60
2008,06,28,06,59,18.60
2008,06,28,07,00,18.60
2008,06,28,07,01,18.60
2008,06,28,07,02,18.70
2008,06,28,07,03,18.70
2008,06,28,07,04,18.70
2008,06,28,07,05,18.80
2008,06,28,07,06,18.80
2008,06,28,07,07,18.80
2008,06,28,07,08,18.80
2008,06,28,07,09,18.80
2008,06,28,07,10,18.80
2008,06,28,07,11,18.80
2008,06,28,07,12,18.90
2008,06,28,07,13,18.90
2008,06,28,07,14,18.90
2008,06,28,07,15,19.00
2008,06,28,07,16,19.00
2008,06,28,07,17,19.00
2008,06,28,07,18,19.00
2008,06,28,07,19,19.00
2008,06,28,07,20,19.00
2008,06,28,07,21,19.00
2008,06,28,07,22,19.10
2008,06,28,07,23,19.10
2008,06,28,07,24,19.10
2008,06,28,07,25,19.10
2008,06,28,07,26,19.10
2008,06,28,07,27,19.20
2008,06,28,07,28,19.20
2008,06,28,07,29,19.20
2008,06,28,07,30,19.20
2008,06,28,07,31,19.30
2008,06,28,07,32,19.30
2008,06,28,07,33,19.30
2008,06,28,07,34,19.40
2008,06,28,07,35,19.40
2008,06,28,07,36,19.40
2008,06,28,07,37,19.50
2008,06,28,07,38,19.50
2008,06,28,07,39,19.60
2008,06,28,07,40,19.60
2008,06,28,07,41,19.60
2008,06,28,07,42,19.50
2008,06,28,07,43,19.50
2008,06,28,07,44,19.60
2008,06,28,07,45,19.60
2008,06,28,07,46,19.60
2008,06,28,07,47,19.60
2008,06,28,07,48,19.70
2008,06,28,07,49,19.80
2008,06,28,07,50,19.80
2008,06,28,07,51,19.80
2008,06,28,07,52,19.80
2008,06,28,07,53,19.80
2008,06,28,07,54,19.80
2008,06,28,07,55,19.80
2008,06,28,07,56,19.80
2008,06,28,07,57,19.80
2008,06,28,07,58,19.80
2008,06,28,07,59,19.80
2008,06,28,08,00,19.80
2008,06,28,08,01,19.80
2008,06,28,08,02,19.80
2008,06,28,08,03,19.80
2008,06,28,08,04,19.90
2008,06,28,08,05,19.90
2008,06,28,08,06,19.90
2008,06,28,08,07,20.00
2008,06,28,08,08,20.00
2008,06,28,08,09,20.00
2008,06,28,08,10,20.00
2008,06,28,08,11,20.00
2008,06,28,08,12,20.10
2008,06,28,08,13,20.10
2008,06,28,08,14,20.20
2008,06,28,08,15,20.20
2008,06,28,08,16,20.20
2008,06,28,08,17,20.20
2008,06,28,08,18,20.20
2008,06,28,08,19,20.30
2008,06,28,08,20,20.30
2008,06,28,08,21,20.20
2008,06,28,08,22,20.20
2008,06,28,08,23,20.20
2008,06,28,08,24,20.20
2008,06,28,08,25,20.10
2008,06,28,08,26,20.20
2008,06,28,08,27,20.20
2008,06,28,08,28,20.20
2008,06,28,08,29,20.30
2008,06,28,08,30,20.30
2008,06,28,08,31,20.30
2008,06,28,08,32,20.30
2008,06,28,08,33,20.30
2008,06,28,08,34,20.30
2008,06,28,08,35,20.20
2008,06,28,08,36,20.10
2008,06,28,08,37,20.10
2008,06,28,08,38,20.10
2008,06,28,08,39,20.10
2008,06,28,08,40,20.10
2008,06,28,08,41,20.10
2008,06,28,08,42,20.20
2008,06,28,08,43,20.20
2008,06,28,08,44,20.20
2008,06,28,08,45,20.20
2008,06,28,08,46,20.10
2008,06,28,08,47,20.10
2008,06,28,08,48,20.20
2008,06,28,08,49,20.20
2008,06,28,08,50,20.20
2008,06,28,08,51,20.20
2008,06,28,08,52,20.20
2008,06,28,08,53,20.30
2008,06,28,08,54,20.30
2008,06,28,08,55,20.40
2008,06,28,08,56,20.40
2008,06,28,08,57,20.40
2008,06,28,08,58,20.40
2008,06,28,08,59,20.40
2008,06,28,09,00,20.50
2008,06,28,09,01,20.50
2008,06,28,09,02,20.60
2008,06,28,09,03,20.70
2008,06,28,09,04,20.80
2008,06,28,09,05,20.80
2008,06,28,09,06,20.90
2008,06,28,09,07,21.00
2008,06,28,09,08,21.00
2008,06,28,09,09,21.10
2008,06,28,09,10,21.10
2008,06,28,09,11,21.10
2008,06,28,09,12,21.20
2008,06,28,09,13,21.20
2008,06,28,09,14,21.20
2008,06,28,09,15,21.10
2008,06,28,09,16,21.10
2008,06,28,09,17,21.10
2008,06,28,09,18,21.10
2008,06,28,09,19,21.10
2008,06,28,09,20,21.10
2008,06,28,09,21,21.10
2008,06,28,09,22,21.10
2008,06,28,09,23,21.00
2008,06,28,09,24,21.00
2008,06,28,09,25,21.00
2008,06,28,09,26,20.90
2008,06,28,09,27,20.90
2008,06,28,09,28,20.90
2008,06,28,09,29,20.90
2008,06,28,09,30,20.90
2008,06,28,09,31,21.00
2008,06,28,09,32,21.10
2008,06,28,09,33,21.10
2008,06,28,09,34,21.10
2008,06,28,09,35,21.20
2008,06,28,09,36,21.30
2008,06,28,09,37,21.30
2008,06,28,09,38,21.30
2008,06,28,09,39,21.20
2008,06,28,09,40,21.20
2008,06,28,09,41,21.10
2008,06,28,09,42,21.10
2008,06,28,09,43,21.20
2008,06,28,09,44,21.20
2008,06,28,09,45,21.30
2008,06,28,09,46,21.40
2008,06,28,09,47,21.40
2008,06,28,09,48,21.40
2008,06,28,09,49,21.40
2008,06,28,09,50,21.40
2008,06,28,09,51,21.50
2008,06,28,09,52,21.60
2008,06,28,09,53,21.60
2008,06,28,09,54,21.70
2008,06,28,09,55,21.70
2008,06,28,09,56,21.70
2008,06,28,09,57,21.70
2008,06,28,09,58,21.70
2008,06,28,09,59,21.70
2008,06,28,10,00,21.80
2008,06,28,10,01,21.80
2008,06,28,10,02,21.80
2008,06,28,10,03,21.80
2008,06,28,10,04,21.80
2008,06,28,10,05,21.80
2008,06,28,10,06,21.80
2008,06,28,10,07,21.80
2008,06,28,10,08,21.80
2008,06,28,10,09,21.90
2008,06,28,10,10,21.90
2008,06,28,10,11,21.90
2008,06,28,10,12,21.90
2008,06,28,10,13,21.80
2008,06,28,10,14,21.80
2008,06,28,10,15,21.80
2008,06,28,10,16,21.80
2008,06,28,10,17,21.90
2008,06,28,10,18,21.90
2008,06,28,10,19,21.90
2008,06,28,10,20,21.90
2008,06,28,10,21,22.00
2008,06,28,10,22,22.10
2008,06,28,10,23,22.20
2008,06,28,10,24,22.30
2008,06,28,10,25,22.20
2008,06,28,10,26,22.20
2008,06,28,10,27,22.20
2008,06,28,10,28,22.10
2008,06,28,10,29,22.00
2008,06,28,10,30,22.00
2008,06,28,10,31,22.00
2008,06,28,10,32,22.00
2008,06,28,10,33,22.10
2008,06,28,10,34,22.20
2008,06,28,10,35,22.30
2008,06,28,10,36,22.30
2008,06,28,10,37,22.30
2008,06,28,10,38,22.20
2008,06,28,10,39,22.20
2008,06,28,10,40,22.20
2008,06,28,10,41,22.20
2008,06,28,10,42,22.20
2008,06,28,10,43,22.20
2008,06,28,10,44,22.20
2008,06,28,10,45,22.20
2008,06,28,10,46,22.20
2008,06,28,10,47,22.20
2008,06,28,10,48,22.20
2008,06,28,10,49,22.20
2008,06,28,10,50,22.30
2008,06,28,10,51,22.30
2008,06,28,10,52,22.30
2008,06,28,10,53,22.30
2008,06,28,10,54,22.40
2008,06,28,10,55,22.40
2008,06,28,10,56,22.40
2008,06,28,10,57,22.50
2008,06,28,10,58,22.60
2008,06,28,10,59,22.60
2008,06,28,11,00,22.70
2008,06,28,11,01,22.70
2008,06,28,11,02,22.70
2008,06,28,11,03,22.70
2008,06,28,11,04,22.80
2008,06,28,11,05,22.80
2008,06,28,11,06,22.80
2008,06,28,11,07,22.70
2008,06,28,11,08,22.70
2008,06,28,11,09,22.70
2008,06,28,11,10,22.70
2008,06,28,11,11,22.80
2008,06,28,11,12,22.80
2008,06,28,11,13,22.80
2008,06,28,11,14,22.70
2008,06,28,11,15,22.60
2008,06,28,11,16,22.60
2008,06,28,11,17,22.60
2008,06,28,11,18,22.70
2008,06,28,11,19,22.70
2008,06,28,11,20,22.80
2008,06,28,11,21,22.80
2008,06,28,11,22,22.90
2008,06,28,11,23,22.90
2008,06,28,11,24,22.90
2008,06,28,11,25,22.80
2008,06,28,11,26,22.80
2008,06,28,11,27,22.70
2008,06,28,11,28,22.70
2008,06,28,11,29,22.80
2008,06,28,11,30,22.80
2008,06,28,11,31,22.80
2008,06,28,11,32,22.80
2008,06,28,11,33,22.80
2008,06,28,11,34,22.90
2008,06,28,11,35,23.10
2008,06,28,11,36,23.20
2008,06,28,11,37,23.20
2008,06,28,11,38,23.20
2008,06,28,11,39,23.20
2008,06,28,11,40,23.20
2008,06,28,11,41,23.10
2008,06,28,11,42,23.00
2008,06,28,11,43,23.00
2008,06,28,11,44,23.00
2008,06,28,11,45,23.00
2008,06,28,11,46,23.00
2008,06,28,11,47,23.00
2008,06,28,11,48,23.10
2008,06,28,11,49,23.20
2008,06,28,11,50,23.30
2008,06,28,11,51,23.40
2008,06,28,11,52,23.40
2008,06,28,11,53,23.40
2008,06,28,11,54,23.40
2008,06,28,11,55,23.40
2008,06,28,11,56,23.50
2008,06,28,11,57,23.60
2008,06,28,11,58,23.60
2008,06,28,11,59,23.60
2008,06,28,12,00,23.60
2008,06,28,12,01,23.70
2008,06,28,12,02,23.70
2008,06,28,12,03,23.80
2008,06,28,12,04,23.80
2008,06,28,12,05,23.80
2008,06,28,12,06,23.80
2008,06,28,12,07,23.90
2008,06,28,12,08,23.90
2008,06,28,12,09,23.90
2008,06,28,12,10,23.80
2008,06,28,12,11,23.70
2008,06,28,12,12,23.70
2008,06,28,12,13,23.70
2008,06,28,12,14,23.80
2008,06,28,12,15,23.80
2008,06,28,12,16,23.90
2008,06,28,12,17,23.90
2008,06,28,12,18,23.90
2008,06,28,12,19,23.80
2008,06,28,12,20,23.80
2008,06,28,12,21,23.70
2008,06,28,12,22,23.70
2008,06,28,12,23,23.70
2008,06,28,12,24,23.60
2008,06,28,12,25,23.60
2008,06,28,12,26,23.60
2008,06,28,12,27,23.60
2008,06,28,12,28,23.60
2008,06,28,12,29,23.70
2008,06,28,12,30,23.70
2008,06,28,12,31,23.80
2008,06,28,12,32,23.80
2008,06,28,12,33,23.80
2008,06,28,12,34,23.80
2008,06,28,12,35,23.80
2008,06,28,12,36,23.90
2008,06,28,12,37,24.00
2008,06,28,12,38,23.90
2008,06,28,12,39,24.00
2008,06,28,12,40,24.00
2008,06,28,12,41,24.10
2008,06,28,12,42,24.10
2008,06,28,12,43,24.20
2008,06,28,12,44,24.20
2008,06,28,12,45,24.20
2008,06,28,12,46,24.20
2008,06,28,12,47,24.10
2008,06,28,12,48,24.00
2008,06,28,12,49,24.10
2008,06,28,12,50,24.20
2008,06,28,12,51,24.30
2008,06,28,12,52,24.30
2008,06,28,12,53,24.40
2008,06,28,12,54,24.40
2008,06,28,12,55,24.30
2008,06,28,12,56,24.30
2008,06,28,12,57,24.30
2008,06,28,12,58,24.40
2008,06,28,12,59,24.50
2008,06,28,13,00,24.40
2008,06,28,13,01,24.40
2008,06,28,13,02,24.30
2008,06,28,13,03,24.20
2008,06,28,13,04,24.20
2008,06,28,13,05,24.20
2008,06,28,13,06,24.10
2008,06,28,13,07,24.10
2008,06,28,13,08,24.10
2008,06,28,13,09,24.20
2008,06,28,13,10,24.30
2008,06,28,13,11,24.40
2008,06,28,13,12,24.40
2008,06,28,13,13,24.30
2008,06,28,13,14,24.30
2008,06,28,13,15,24.30
2008,06,28,13,16,24.30
2008,06,28,13,17,24.30
2008,06,28,13,18,24.30
2008,06,28,13,19,24.30
2008,06,28,13,20,24.30
2008,06,28,13,21,24.30
2008,06,28,13,22,24.30
2008,06,28,13,23,24.40
2008,06,28,13,24,24.40
2008,06,28,13,25,24.50
2008,06,28,13,26,24.50
2008,06,28,13,27,24.60
2008,06,28,13,28,24.50
2008,06,28,13,29,24.50
2008,06,28,13,30,24.40
2008,06,28,13,31,24.40
2008,06,28,13,32,24.30
2008,06,28,13,33,24.40
2008,06,28,13,34,24.50
2008,06,28,13,35,24.50
2008,06,28,13,36,24.60
2008,06,28,13,37,24.60
2008,06,28,13,38,24.70
2008,06,28,13,39,24.70
2008,06,28,13,40,24.70
2008,06,28,13,41,24.60
2008,06,28,13,42,24.60
2008,06,28,13,43,24.60
2008,06,28,13,44,24.70
2008,06,28,13,45,24.70
2008,06,28,13,46,24.60
2008,06,28,13,47,24.40
2008,06,28,13,48,24.30
2008,06,28,13,49,24.30
2008,06,28,13,50,24.40
2008,06,28,13,51,24.40
2008,06,28,13,52,24.50
2008,06,28,13,53,24.60
2008,06,28,13,54,24.70
2008,06,28,13,55,24.80
2008,06,28,13,56,24.80
2008,06,28,13,57,24.80
2008,06,28,13,58,24.70
2008,06,28,13,59,24.70
2008,06,28,14,00,24.60
2008,06,28,14,01,24.60
2008,06,28,14,02,24.60
2008,06,28,14,03,24.70
2008,06,28,14,04,24.70
2008,06,28,14,05,24.80
2008,06,28,14,06,24.90
2008,06,28,14,07,24.90
2008,06,28,14,08,24.80
2008,06,28,14,09,24.70
2008,06,28,14,10,24.70
2008,06,28,14,11,24.70
2008,06,28,14,12,24.70
2008,06,28,14,13,24.80
2008,06,28,14,14,24.80
2008,06,28,14,15,24.80
2008,06,28,14,16,24.70
2008,06,28,14,17,24.80
2008,06,28,14,18,24.90
2008,06,28,14,19,24.90
2008,06,28,14,20,25.00
2008,06,28,14,21,25.00
2008,06,28,14,22,24.90
2008,06,28,14,23,24.90
2008,06,28,14,24,24.80
2008,06,28,14,25,24.80
2008,06,28,14,26,24.80
2008,06,28,14,27,24.90
2008,06,28,14,28,25.00
2008,06,28,14,29,25.00
2008,06,28,14,30,25.00
2008,06,28,14,31,25.10
2008,06,28,14,32,25.20
2008,06,28,14,33,25.20
2008,06,28,14,34,25.30
2008,06,28,14,35,25.40
2008,06,28,14,36,25.40
2008,06,28,14,37,25.40
2008,06,28,14,38,25.30
2008,06,28,14,39,25.30
2008,06,28,14,40,25.30
2008,06,28,14,41,25.30
2008,06,28,14,42,25.30
2008,06,28,14,43,25.40
2008,06,28,14,44,25.50
2008,06,28,14,45,25.60
2008,06,28,14,46,25.70
2008,06,28,14,47,25.80
2008,06,28,14,48,25.80
2008,06,28,14,49,25.80
2008,06,28,14,50,25.90
2008,06,28,14,51,25.90
2008,06,28,14,52,25.90
2008,06,28,14,53,25.90
2008,06,28,14,54,25.90
2008,06,28,14,55,25.90
2008,06,28,14,56,25.90
2008,06,28,14,57,25.90
2008,06,28,14,58,25.90
2008,06,28,14,59,25.90
2008,06,28,15,00,25.80
2008,06,28,15,01,25.80
2008,06,28,15,02,25.70
2008,06,28,15,03,25.80
2008,06,28,15,04,25.90
2008,06,28,15,05,26.00
2008,06,28,15,06,26.10
2008,06,28,15,07,26.20
2008,06,28,15,08,26.20
2008,06,28,15,09,26.20
2008,06,28,15,10,26.10
2008,06,28,15,11,26.00
2008,06,28,15,12,25.90
2008,06,28,15,13,25.90
2008,06,28,15,14,25.90
2008,06,28,15,15,25.90
2008,06,28,15,16,25.80
2008,06,28,15,17,25.80
2008,06,28,15,18,25.80
2008,06,28,15,19,25.90
2008,06,28,15,20,25.90
2008,06,28,15,21,25.90
2008,06,28,15,22,26.00
2008,06,28,15,23,26.00
2008,06,28,15,24,25.90
2008,06,28,15,25,25.90
2008,06,28,15,26,25.90
2008,06,28,15,27,25.90
2008,06,28,15,28,26.00
2008,06,28,15,29,26.10
2008,06,28,15,30,26.10
2008,06,28,15,31,26.10
2008,06,28,15,32,26.20
2008,06,28,15,33,26.20
2008,06,28,15,34,26.20
2008,06,28,15,35,26.20
2008,06,28,15,36,26.10
2008,06,28,15,37,26.10
2008,06,28,15,38,26.10
2008,06,28,15,39,26.00
2008,06,28,15,40,26.10
2008,06,28,15,41,26.00
2008,06,28,15,42,26.10
2008,06,28,15,43,26.20
2008,06,28,15,44,26.20
2008,06,28,15,45,26.20
2008,06,28,15,46,26.30
2008,06,28,15,47,26.30
2008,06,28,15,48,26.30
2008,06,28,15,49,26.20
2008,06,28,15,50,26.20
2008,06,28,15,51,26.20
2008,06,28,15,52,26.20
2008,06,28,15,53,26.20
2008,06,28,15,54,26.30
2008,06,28,15,55,26.20
2008,06,28,15,56,26.10
2008,06,28,15,57,26.10
2008,06,28,15,58,26.10
2008,06,28,15,59,26.00
2008,06,28,16,00,26.10
2008,06,28,16,01,26.10
2008,06,28,16,02,26.10
2008,06,28,16,03,26.20
2008,06,28,16,04,26.30
2008,06,28,16,05,26.30
2008,06,28,16,06,26.30
2008,06,28,16,07,26.40
2008,06,28,16,08,26.50
2008,06,28,16,09,26.50
2008,06,28,16,10,26.60
2008,06,28,16,11,26.60
2008,06,28,16,12,26.60
2008,06,28,16,13,26.50
2008,06,28,16,14,26.50
2008,06,28,16,15,26.50
2008,06,28,16,16,26.40
2008,06,28,16,17,26.40
2008,06,28,16,18,26.40
2008,06,28,16,19,26.40
2008,06,28,16,20,26.40
2008,06,28,16,21,26.40
2008,06,28,16,22,26.30
2008,06,28,16,23,26.40
2008,06,28,16,24,26.40
2008,06,28,16,25,26.40
2008,06,28,16,26,26.40
2008,06,28,16,27,26.30
2008,06,28,16,28,26.20
2008,06,28,16,29,26.20
2008,06,28,16,30,26.20
2008,06,28,16,31,26.20
2008,06,28,16,32,26.20
2008,06,28,16,33,26.30
2008,06,28,16,34,26.30
2008,06,28,16,35,26.20
2008,06,28,16,36,26.20
2008,06,28,16,37,26.20
2008,06,28,16,38,26.30
2008,06,28,16,39,26.40
2008,06,28,16,40,26.40
2008,06,28,16,41,26.40
2008,06,28,16,42,26.40
2008,06,28,16,43,26.40
2008,06,28,16,44,26.40
2008,06,28,16,45,26.30
2008,06,28,16,46,26.30
2008,06,28,16,47,26.30
2008,06,28,16,48,26.30
2008,06,28,16,49,26.30
2008,06,28,16,50,26.40
2008,06,28,16,51,26.40
2008,06,28,16,52,26.40
2008,06,28,16,53,26.40
2008,06,28,16,54,26.30
2008,06,28,16,55,26.30
2008,06,28,16,56,26.40
2008,06,28,16,57,26.40
2008,06,28,16,58,26.50
2008,06,28,16,59,26.50
2008,06,28,17,00,26.50
2008,06,28,17,01,26.40
2008,06,28,17,02,26.50
2008,06,28,17,03,26.50
2008,06,28,17,04,26.60
2008,06,28,17,05,26.60
2008,06,28,17,06,26.60
2008,06,28,17,07,26.60
2008,06,28,17,08,26.60
2008,06,28,17,09,26.60
2008,06,28,17,10,26.70
2008,06,28,17,11,26.70
2008,06,28,17,12,26.60
2008,06,28,17,13,26.60
2008,06,28,17,14,26.50
2008,06,28,17,15,26.50
2008,06,28,17,16,26.40
2008,06,28,17,17,26.50
2008,06,28,17,18,26.50
2008,06,28,17,19,26.50